Location: Days
(41.3591°N, 106.7339°W)
Time: 02:32:37
(UTC+00:00)

JY1SAT - Visible Passes

Search period start: 26 June 2022 00:00
Search period end: 06 July 2022 00:00
Orbit: 566 x 585 km, 97.6° (Epoch: 25 June)

Date Brightness Start Highest point End Pass type
(mag) Time Alt. Az. Time Alt. Az. Time Alt. Az.
26 Jun ? 03:54:23 15° ESE 03:57:05 30° ENE 04:00:44 10° N visible
26 Jun ? 05:30:38 17° SW 05:32:20 22° W 05:35:35 10° NW visible
27 Jun ? 03:58:03 16° SE 04:00:42 33° ENE 04:04:25 10° N visible
27 Jun ? 05:34:18 16° SW 05:36:00 20° W 05:39:05 10° NW visible
28 Jun ? 04:01:43 18° SE 04:04:18 36° ENE 04:08:06 10° N visible
28 Jun ? 05:37:58 15° WSW 05:39:39 18° W 05:42:33 10° NW visible
29 Jun ? 04:05:23 19° SE 04:07:55 39° ENE 04:11:47 10° N visible
29 Jun ? 05:41:38 14° WSW 05:43:18 17° W 05:45:59 10° NW visible
30 Jun ? 04:09:03 20° SE 04:11:30 43° ENE 04:15:27 10° N visible
30 Jun ? 05:45:18 12° WSW 05:46:57 15° W 05:49:24 10° NW visible
01 Jul ? 04:12:43 22° SE 04:15:06 47° ENE 04:19:06 10° N visible
01 Jul ? 05:48:57 11° WSW 05:50:36 14° W 05:52:46 10° WNW visible
02 Jul ? 04:16:22 23° SE 04:18:42 52° ENE 04:22:45 10° N visible
02 Jul ? 05:52:37 10° WSW 05:54:15 13° W 05:56:03 10° WNW visible
03 Jul ? 04:20:02 25° SE 04:22:18 58° ENE 04:26:23 10° N visible
03 Jul ? 05:56:33 10° WSW 05:57:54 11° W 05:59:14 10° WNW visible
04 Jul ? 04:23:41 26° SSE 04:25:53 64° ENE 04:30:00 10° N visible
04 Jul ? 06:01:03 10° W 06:01:33 10° W 06:02:02 10° W visible
05 Jul ? 04:27:21 27° SSE 04:29:30 71° ENE 04:33:38 10° N visible
